Location: Unspecified
(0.0000°N, 0.0000°E)
Time: 18:21:49
(UTC+00:00)

Vanguard 1 - Pass Details

Date: 02 October 2020
Orbit: 650 x 3833 km, 34.3° (Epoch: 26 October)

Event Time Altitude Azimuth Distance (km) Brightness Sun altitude
Rises 16:41:02 0° 238° (WSW) 7,837 15.8 17.0°
Reaches altitude 10° 16:46:49 10° 240° (WSW) 6,575 15.6 15.5°
Maximum altitude 17:06:28 69° 320° (NW) 2,540 12.5 10.6°
Drops below altitude 10° 17:17:08 10° 42° (NE) 3,816 12.7 8.0°
Sets 17:19:35 0° 45° (NE) 4,497 13.0 7.4°
